Wind_Speed
63 60 57 59 62 57 56 56 51 46 40 39 38 40 40 37 36 33 32 28 28 24 27 31 28 35 43 42 45 49 46 47 47 47 47 47 46 45
64 62 60 59 56 56 55 55 55 47 39 40 40 41 45 40 37 36 32 30 27 26 26 29 33 34 34 41 51 51 49 48 48 49 50 51 48 50
66 63 60 58 53 51 55 54 53 47 40 37 42 47 49 42 41 40 34 30 30 26 28 30 31 33 34 34 34 43 46 49 51 53 53 52 52 52
72 64 60 56 53 53 55 52 46 46 44 43 45 47 47 49 47 43 37 32 31 30 28 31 35 36 35 36 34 38 39 40 43 49 48 46 44 45
70 72 61 53 49 49 51 49 47 45 46 46 45 41 50 55 52 46 39 36 36 35 32 33 36 39 38 37 38 37 37 47 46 46 48 46 52 50
57 66 60 54 49 49 50 52 47 47 48 43 39 43 38 48 49 44 39 39 40 38 34 33 36 36 40 39 38 39 39 39 44 49 51 51 52 50
48 52 57 57 50 50 54 50 47 48 46 41 45 47 46 45 48 42 42 41 41 38 35 36 36 34 36 40 40 40 42 43 42 44 48 53 53 48
48 47 50 54 51 52 52 48 49 45 40 48 43 37 47 40 48 50 54 46 42 40 39 38 36 36 36 37 41 45 43 41 42 44 42 44 48 50
41 44 47 48 50 53 48 46 47 44 42 42 44 38 36 37 43 50 57 56 46 41 40 38 36 37 37 40 42 45 46 45 43 42 43 43 44 43
35 34 35 41 47 47 47 47 44 42 38 40 38 33 28 45 42 41 41 43 44 42 40 39 37 38 36 39 37 37 38 40 41 43 44 44 43 42
20 46 42 46 44 45 47 47 47 48 44 42 42 43 44 47 44 48 45 46 46 42 42 42 38 38 38 38 35 40 39 42 45 44 43 43 45 49
24 25 29 42 45 45 47 48 49 44 42 43 43 42 43 42 40 41 45 49 49 46 43 46 42 40 40 41 41 39 42 42 43 46 47 50 47 47
35 34 34 33 40 43 49 53 47 45 46 49 48 47 47 45 48 48 47 49 51 52 49 49 47 43 43 43 44 44 41 43 44 45 46 50 55 49
30 30 31 40 36 41 46 49 50 51 56 61 59 52 52 54 55 54 53 53 54 53 53 52 50 48 45 46 44 44 45 45 48 51 51 53 54 55
25 32 38 43 40 44 45 48 52 50 54 54 53 52 49 51 55 60 60 52 56 57 55 54 55 53 50 46 45 46 48 49 50 50 49 49 51 56
12 14 19 25 26 26 26 29 35 46 53 56 54 54 58 59 59 58 60 57 57 57 57 57 56 55 53 50 50 50 49 50 51 53 52 51 49 52
30 28 24 22 23 24 28 32 34 36 39 44 45 49 51 51 54 54 54 62 64 65 61 59 56 58 57 57 55 53 55 55 56 56 57 59 58 58
25 25 27 28 31 33 34 34 33 33 34 38 41 45 49 52 54 55 56 57 60 60 59 60 61 64 63 60 60 59 57 59 59 61 64 67 67 66
32 33 33 33 34 35 35 36 37 39 43 45 46 44 41 42 45 50 53 55 57 61 64 65 65 65 65 64 63 62 61 61 63 63 65 68 68 69
36 38 38 39 40 40 41 42 43 43 44 45 45 47 49 52 54 54 52 50 49 52 55 58 61 63 63 63 63 64 65 67 68 70 71 72 73 73
42 43 44 46 47 49 50 51 51 52 52 51 51 51 52 52 52 53 54 56 58 60 61 60 59 59 59 59 59 61 65 67 69 72 73 74 76 77
49 51 53 55 56 57 58 58 60 62 63 64 65 64 63 62 61 60 60 60 60 59 59 59 59 60 61 63 65 65 66 66 66 66 68 71 73 74
60 62 63 65 66 67 68 69 71 72 71 69 70 70 71 72 74 75 75 74 73 72 70 69 68 67 67 67 67 67 67 68 68 69 70 71 72 72
Wind_Direction
254 253 253 255 249 249 251 253 251 253 254 251 250 261 257 257 258 259 263 267 267 258 255 259 256 235 235 234 236 238 236 239 242 245 247 248 252 253
254 254 253 256 252 245 250 252 252 250 254 250 251 257 253 256 260 257 259 263 265 258 258 256 258 258 257 242 239 239 238 240 242 246 247 251 248 250
252 252 253 253 254 251 248 249 251 254 253 251 247 250 253 249 257 256 257 259 264 262 259 259 258 259 258 261 255 239 234 234 242 249 250 250 259 261
251 249 247 249 252 245 241 247 250 249 250 250 247 251 250 256 248 251 253 257 260 264 264 263 259 258 258 257 254 250 251 251 248 252 258 263 265 273
242 243 243 243 242 249 244 249 249 249 247 245 246 256 256 244 241 245 246 251 256 259 262 264 262 256 254 253 252 251 248 246 247 247 252 256 254 256
240 237 237 238 235 238 244 246 245 245 242 247 253 254 244 231 233 243 247 250 254 259 265 267 267 261 255 252 251 252 254 251 249 247 246 253 255 257
231 229 229 231 231 234 238 242 245 244 246 249 248 244 240 243 242 244 249 252 254 256 264 266 263 262 255 254 253 251 253 253 251 251 252 254 259 258
233 223 220 227 229 235 237 238 241 242 234 244 247 244 241 247 239 242 244 248 253 256 259 261 262 260 256 252 255 256 253 254 251 254 255 255 254 258
218 218 216 220 227 230 234 236 241 243 241 245 241 240 243 242 245 248 246 249 253 255 258 259 257 261 261 265 267 257 248 248 252 254 259 259 257 258
217 231 218 225 227 230 235 238 240 242 243 244 245 235 247 246 255 255 243 244 253 259 258 259 256 257 262 266 260 250 250 247 249 253 254 260 261 256
244 228 230 231 226 230 238 239 239 241 245 245 247 241 244 248 252 257 254 250 255 260 261 261 260 256 259 262 263 258 254 250 250 250 255 250 249 259
233 227 233 237 232 235 235 240 241 241 243 242 244 243 245 248 252 253 253 253 258 259 261 263 262 263 258 258 262 262 259 259 250 249 250 250 256 258
230 238 231 235 237 236 229 230 240 235 241 245 241 248 249 251 256 256 256 254 255 259 259 261 263 260 261 259 258 258 262 260 249 251 257 256 252 251
225 240 243 234 239 257 252 245 256 245 250 242 244 251 246 249 250 253 253 259 255 254 255 259 263 263 262 262 261 261 258 258 255 251 253 255 257 257
254 249 250 255 256 245 252 254 254 250 244 251 250 255 247 251 249 254 250 258 255 255 254 256 261 261 261 261 260 259 258 257 254 253 254 257 255 254
256 249 245 245 243 245 246 251 253 252 253 250 250 243 241 253 254 251 246 254 257 258 260 254 256 257 258 259 262 262 259 257 257 256 256 254 257 257
311 308 298 280 269 266 261 260 255 248 248 246 246 245 246 248 250 250 253 253 253 255 253 251 251 257 258 260 262 262 259 258 256 255 254 255 255 258
290 287 286 287 288 289 284 277 267 260 255 257 257 256 254 252 251 255 257 255 253 248 246 252 253 252 256 260 262 261 261 259 259 257 255 254 256 259
290 287 286 285 283 282 281 279 279 279 282 281 271 262 255 254 255 254 254 254 253 250 249 250 253 253 255 259 261 261 260 259 257 257 256 256 259 260
291 290 289 288 286 284 282 281 280 278 277 275 274 274 276 276 272 268 262 256 254 255 256 257 257 259 260 260 259 259 258 258 258 257 256 256 257 259
292 291 289 287 285 284 283 281 280 279 277 275 274 273 273 272 271 271 270 271 271 271 270 265 262 260 258 258 258 258 257 256 255 256 257 258 259 260
288 286 285 284 282 280 279 279 279 278 276 274 272 272 272 271 269 268 268 267 267 266 265 264 264 265 265 266 266 265 263 262 261 261 261 261 262 262
290 288 286 284 282 280 279 279 279 279 276 274 272 271 270 268 268 267 267 267 266 266 266 265 265 265 265 264 264 264 264 264 265 266 266 267 267 268
Height
5654 5659 5662 5667 5670 5673 5677 5682 5684 5688 5693 5698 5699 5700 5703 5703 5705 5705 5707 5708 5706 5705 5708 5710 5710 5711 5716 5719 5722 5725 5728 5732 5735 5738 5741 5743 5745 5746
5641 5644 5649 5653 5656 5660 5666 5671 5672 5676 5683 5690 5690 5691 5692 5697 5696 5697 5699 5700 5701 5699 5700 5702 5704 5705 5706 5708 5712 5714 5718 5722 5725 5728 5730 5732 5733 5735
5624 5629 5635 5641 5645 5650 5654 5658 5663 5666 5671 5676 5679 5679 5681 5685 5687 5688 5690 5692 5693 5692 5692 5694 5696 5697 5699 5700 5702 5704 5707 5711 5715 5718 5720 5721 5722 5723
5605 5613 5621 5627 5632 5635 5640 5645 5653 5656 5658 5663 5665 5667 5670 5673 5676 5680 5681 5683 5685 5685 5683 5684 5686 5688 5690 5692 5694 5697 5698 5702 5703 5706 5709 5712 5712 5714
5584 5592 5603 5612 5620 5625 5629 5633 5640 5644 5646 5651 5655 5654 5656 5660 5665 5670 5672 5674 5676 5676 5676 5677 5677 5677 5679 5682 5685 5687 5689 5693 5694 5697 5699 5701 5702 5702
5568 5575 5589 5597 5606 5612 5615 5621 5626 5630 5634 5639 5642 5644 5647 5648 5653 5658 5661 5664 5667 5667 5666 5666 5666 5667 5669 5672 5674 5676 5677 5680 5683 5686 5687 5688 5688 5689
5552 5560 5574 5584 5593 5599 5604 5609 5614 5618 5622 5627 5631 5634 5638 5640 5643 5646 5648 5653 5656 5657 5656 5656 5657 5657 5659 5661 5663 5664 5667 5669 5672 5672 5674 5676 5677 5679
5541 5549 5559 5571 5581 5586 5592 5599 5604 5608 5606 5616 5619 5621 5624 5626 5629 5633 5638 5642 5645 5646 5645 5647 5649 5650 5651 5652 5653 5654 5655 5657 5659 5662 5663 5664 5665 5666
5532 5542 5550 5559 5569 5575 5580 5587 5592 5597 5601 5605 5608 5609 5612 5614 5619 5622 5625 5630 5633 5635 5635 5637 5639 5639 5640 5642 5641 5640 5643 5645 5647 5649 5650 5652 5654 5654
5527 5537 5542 5551 5558 5566 5571 5576 5581 5586 5590 5594 5597 5599 5602 5605 5606 5610 5614 5617 5620 5622 5623 5625 5628 5629 5630 5631 5631 5631 5632 5633 5636 5637 5638 5639 5640 5643
5525 5532 5540 5545 5551 5556 5562 5567 5570 5574 5579 5582 5587 5590 5592 5595 5596 5599 5602 5605 5608 5609 5611 5613 5615 5616 5617 5619 5621 5622 5622 5623 5624 5625 5627 5628 5629 5631
5527 5531 5536 5540 5544 5548 5552 5556 5561 5564 5568 5572 5576 5578 5581 5583 5585 5587 5589 5593 5594 5596 5598 5599 5600 5602 5604 5606 5608 5609 5610 5610 5610 5611 5613 5615 5616 5616
5521 5521 5526 5530 5535 5538 5543 5546 5549 5551 5558 5560 5563 5566 5569 5571 5572 5574 5577 5579 5580 5582 5584 5585 5587 5589 5590 5593 5594 5596 5597 5597 5598 5599 5600 5601 5602 5602
5515 5517 5520 5522 5523 5527 5530 5532 5536 5536 5543 5545 5546 5550 5553 5556 5559 5560 5562 5565 5566 5567 5569 5571 5572 5574 5576 5578 5580 5581 5582 5585 5586 5586 5587 5588 5588 5589
5506 5508 5510 5512 5514 5518 5520 5522 5525 5524 5527 5529 5531 5535 5536 5540 5542 5544 5546 5548 5551 5552 5554 5556 5558 5559 5561 5564 5564 5566 5567 5569 5571 5573 5573 5573 5572 5571
5500 5501 5501 5502 5504 5503 5505 5506 5507 5509 5512 5514 5516 5518 5521 5523 5526 5528 5530 5532 5534 5537 5539 5541 5543 5544 5546 5548 5549 5550 5553 5554 5555 5557 5558 5558 5559 5558
5494 5494 5494 5494 5493 5494 5495 5496 5497 5498 5501 5501 5502 5504 5505 5507 5508 5511 5512 5515 5517 5519 5521 5524 5526 5528 5529 5531 5532 5534 5535 5537 5539 5540 5542 5542 5542 5543
5487 5487 5487 5487 5487 5486 5486 5486 5485 5486 5486 5487 5488 5489 5490 5492 5494 5495 5496 5497 5498 5500 5503 5505 5508 5510 5511 5512 5514 5516 5517 5518 5520 5521 5522 5523 5524 5524
5479 5478 5477 5476 5476 5475 5475 5475 5474 5474 5473 5473 5473 5474 5475 5476 5476 5477 5478 5479 5480 5481 5484 5486 5488 5491 5492 5493 5495 5496 5498 5499 5500 5501 5501 5503 5504 5505
5469 5468 5466 5465 5464 5463 5462 5461 5461 5460 5460 5460 5460 5460 5459 5459 5460 5460 5460 5460 5461 5463 5464 5466 5468 5470 5471 5473 5474 5475 5475 5477 5479 5480 5481 5482 5483 5483
5459 5457 5455 5453 5451 5449 5447 5446 5445 5444 5444 5444 5444 5444 5443 5443 5443 5442 5442 5442 5442 5443 5445 5447 5449 5450 5451 5451 5452 5453 5455 5456 5457 5458 5459 5459 5461 5461
5445 5442 5440 5437 5435 5432 5430 5428 5426 5425 5424 5424 5423 5422 5422 5422 5422 5423 5423 5423 5422 5424 5425 5427 5428 5428 5429 5430 5431 5432 5434 5434 5434 5435 5436 5437 5439 5439
5423 5421 5418 5415 5412 5410 5407 5405 5402 5401 5400 5399 5398 5397 5396 5397 5397 5398 5399 5400 5401 5402 5402 5404 5405 5406 5406 5408 5409 5410 5411 5412 5412 5413 5413 5414 5415 5415